User: anonymous   Login
Location: Shenandoah County Park
(38.9356°N, 78.4524°W)
Time: 10:26:39
(UTC-04:00)
Language:

deb Explorer IX - Orbit

View from above orbital plane
View from above orbital plane
View from above satellite
View from above satellite

Ground track
Ground track

The orbit data is extracted from the following two-line orbital elements,

1 00085U 61004C   24146.26427503  .00031543  00000-0  41729-2 0  9991
2 00085  38.7391 130.6268 0266794 154.1927 207.2416 14.57505419137043
Epoch (UTC): 25 May 2024 06:20:33
Eccentricity: 0.0266794
inclination: 38.7391°
perigee height: 512 km
apogee height: 890 km
right ascension of ascending node: 130.6268°
argument of perigee: 154.1927°
revolutions per day: 14.57505419
mean anomaly at epoch: 207.2416°
orbit number at epoch: 13704

The dashed part of the orbit path shows where the satellite is in the earth's shadow,  

DLR